Flag for Germany Weather past 2 weeks in Gütersloh, North Rhine-Westphalia, Germany

Now
40 °F

Overcast.


Feels Like: 40 °F
Forecast: 30 / 44 °F
Wind: 2 mph from Northwest

Location: Bad Lippspringe

Current Time: Feb 27, 2015 at 6:35:43 PM

Latest Report: Feb 27, 2015 at 6:00 PM


Visibility: 22 mi

Pressure: 30.03 "Hg

Humidity: 88%

Dew point: 37 °F

Location of GüterslohLocation

Historic Weather in Gütersloh — Graph

°F

Gütersloh temperature yesterday

Maximum temperature yesterday: 47 °F (at 2:00 PM)
Minimum temperature yesterday: 38 °F (at 1:00 AM)
Average temperature yesterday: 43 °F

Past Weeks' High & Low Weather Summary

 TemperatureHumidityPressure
High49 °F (Feb 14, 2:00 PM)100% (Feb 17, 6:00 PM)30.78 "Hg (Feb 17, 6:00 PM)
Low26 °F (Feb 19, 5:00 AM)52% (Feb 22, 3:00 PM)29.32 "Hg (Feb 21, 7:00 AM)
Average38 °F81%29.99 "Hg
* Reported Feb 12 5:00 PM — Feb 27 5:00 PM, Gütersloh, Weather by CustomWeather, © 2015

Note: Actual official high and low records may vary slightly from our data, if they occured in-between our weather recording intervals... More about our weather records

Advertising

Gütersloh weather history for previous 24 hours

 ConditionsComfort  
Time TempWeatherWind HumidityBarometerVisibility
5:00 PM
Fri, Feb 27
41 °FOvercast.2 mph89%30.01 "Hg19 mi
4:00 PM41 °FOvercast.2 mph91%29.98 "Hg16 mi
3:00 PM40 °FDrizzle. Low clouds.2 mph96%29.97 "Hg2 mi
2:00 PM41 °FLight freezing rain. Light fog.5 mph93%29.95 "Hg8 mi
1:00 PM41 °FLight rain. Low clouds.3 mph94%29.93 "Hg7 mi
12:00 PM40 °FLight rain. Low clouds.2 mph94%29.92 "Hg6 mi
11:00 AM39 °FLight rain. Low clouds.3 mph92%29.90 "Hg11 mi
10:00 AM39 °FLight rain. Low clouds.5 mph93%29.88 "Hg10 mi
9:00 AM39 °FLight rain. Low clouds.1 mph95%29.85 "Hg4 mi
8:00 AM39 °FLight rain. Overcast.1 mph93%29.83 "Hg4 mi
7:00 AM39 °FLight rain. Overcast.1 mph96%29.81 "Hg4 mi
6:00 AM39 °FLight rain. Overcast.1 mph93%29.80 "Hg8 mi
5:00 AM40 °FLight rain. Overcast.3 mph90%29.79 "Hg25 mi
4:00 AM39 °FLight rain. Overcast.2 mph90%29.80 "Hg43 mi
3:00 AM40 °FLight rain. Overcast.2 mph85%29.81 "Hg43 mi
2:00 AM41 °FLight freezing rain. Overcast.6 mph78%29.82 "Hg15 mi
1:00 AM43 °FOvercast.3 mph71%29.83 "Hg43 mi
12:00 AM43 °FOvercast.3 mph70%29.84 "Hg43 mi
11:00 PM
Thu, Feb 26
43 °FOvercast.3 mph71%29.87 "Hg43 mi
10:00 PM43 °FOvercast.3 mph73%29.89 "Hg43 mi
9:00 PM43 °FOvercast.3 mph73%29.91 "Hg43 mi
8:00 PM42 °FOvercast.3 mph75%29.93 "Hg43 mi
7:00 PM42 °FPassing clouds.3 mph76%29.96 "Hg43 mi
6:00 PM43 °FPassing clouds.5 mph70%29.96 "Hg22 mi
Weather by CustomWeather, © 2015

See weather overviewHow to use our weather pages